Showing default

MAKERSAT 0, 43016

Orbit data source: Space-Track

MAKERSAT 0, 43016 is a payload satellite owned by NW Nazarene (US) in SSO that was launched on Sat, 18 Nov 2017 UTC via a DELTA 7920-10C launch vehicle from the Air Force Western Test Range (AFWTR). Payload-class satellites include a variety of spacecraft equipped with specific instruments for various scientific and technological missions. These include communications satellites like Starlink; space stations such as the ISS; scientific satellites like the Hubble; Earth observation satellites from companies like Planet Labs, Umbra, and HawkEye 360; GPS; miniature CubeSats for education and research; and military/defense satellites.

Loading next visibility...
Identifier
43016, 2017-073D
Orbit
SSO
Country
Flag of USUS
Related business
Manufacturer
NW Nazarene
Mission
Operational Amateur Technology
Bus & Motor
CUBESAT 1U, Unknown motor
Mass
1 kg wet, 1 kg dry
Launch date (UTC)
2017-11-18 (8 years ago)
Launch vehicle
DELTA 7920-10C
Launch site
Air Force Western Test Range (AFWTR)
Object type
Payload
Rocket body
Debris
Shape & HBR
Box, 0.1 m
Radar Cross Section
0.015 m², Small (<0.1 m²)

Expand to show TLE details & history
Last TLE update: 6 hours ago

TLE from 6 hours ago
0 MAKERSAT 0
1 43016U 17073D   26035.14907014  .00026890  00000-0  84142-3 0  9991
2 43016  97.4837 277.0456 0122178  24.9634 335.7445 15.26009853446132
Epoch: 2026-02-04T03:34Z
TLE epoch observation values (Epoch: 2026-02-04T03:34:39.660Z)
Latitude
0.00001°
Longitude
89.06055°
Altitude
414.529 km
Speed
7.705 km/s
True Right ascension
18h 28m 10s
True Declination
0° 00' 00"
Sunlit
Object was in daylight at epoch
Visualization orbit readout
Latitude
Unknown
Longitude
Unknown
Altitude
Unknown
Speed
Unknown
Apparent Right ascension
Unknown
Apparent Declination
Unknown
Sunlit
N/A
Visualization observer readout
Local Sidereal Time
11:46:02
Azimuth
Unknown
Elevation
Unknown
Doppler factor
Unknown
Orbital elements
Apogee altitude
568.564 km
Perigee altitude
400.866 km
Semi-major axis
6,862.852 km
Eccentricity
0.01222
Inclination
97.4837°
RAAN
277.0456°
Arg. of periapsis
24.9634°
True anomaly
335.16124°
Mean anomaly
335.7445°
Eccentric anomaly
335.45369°
Mean motion
3.81756 °/min
Orbital period
94.3 mins
BSTAR
0.00084142
Loading maneuver chart data...
Computing Atmospheric mass density...
Loading historical data...
Loading historical data...
Loading historical data...
Loading historical data...
Loading historical data...
Loading historical data...
Loading historical data...

Documentation

Showing up to 5 results
|